Kogalniceanu, Romania

12:12 PM EEST on May 25, 2017 (GMT +0300)
M. Kogalniceanu

Weather History for LRCK - May, 2013

Change the Weather History Date:

Saturday, May 25, 2013

  Actual Average Record
Temperature  
Mean Temperature 66 °F -  
Max Temperature 78 °F 76 °F 84 °F (2002)
Min Temperature 53 °F 55 °F 42 °F (2001)
Growing Degree Days 16 (Base 50)    
Moisture  
Dew Point 52 °F    
Average Humidity 64    
Maximum Humidity 88    
Minimum Humidity 32    
Precipitation  
Precipitation 0.00 in - - ()
Sea Level Pressure  
Sea Level Pressure 29.80 in    
Wind  
Wind Speed 9 mph ()    
Max Wind Speed 20 mph    
Max Gust Speed -    
Visibility 6.2 miles    
Events Rain , Thunderstorm    
Averages and records for this station are not official NWS values.
T = Trace of Precipitation, MM = Missing Value Source: Averaged Metar Reports

Daily Weather History Graph

Daily Weather History Graph

Search for Another Location

Airport or City:

Trip Planner

Search our weather history database for the weather conditions in past years. The results will help you decide how hot, cold, wet, or windy it might be!

Date:

Astronomy

May. 25, 2013 Rise Set
Actual Time 5:29 AM EEST 8:37 PM EEST
Civil Twilight 4:55 AM EEST 9:12 PM EEST
Nautical Twilight 4:10 AM EEST 9:57 PM EEST
Astronomical Twilight 3:16 AM EEST 10:51 PM EEST
Moon 9:03 PM EEST 5:39 AM EEST
Length of Visible Light 16h 17m
Length of Day
15h 07m
Full, 100% of the Moon is Illuminated
May 25
Full
May 31
Last Quarter
Jun 8
New
Jun 16
First Quarter
Jun 23
Full

Hourly Weather History & Observations

Time (EEST) Temp. Dew Point Humidity Pressure Visibility Wind Dir Wind Speed Gust Speed Precip Events Conditions
12:00 AM 60.8 °F 55.4 °F 82% 29.71 in - SW 11.5 mph - N/A   Clear
12:30 AM 60.8 °F 53.6 °F 77% 29.74 in - SW 11.5 mph - N/A   Clear
1:00 AM 59.0 °F 53.6 °F 82% 29.74 in - WSW 10.4 mph - N/A   Clear
1:30 AM 59.0 °F 51.8 °F 77% 29.74 in - West 10.4 mph - N/A   Clear
2:00 AM 59.0 °F 51.8 °F 77% 29.74 in - West 10.4 mph - N/A   Clear
2:30 AM 57.2 °F 51.8 °F 82% 29.77 in - West 9.2 mph - N/A   Clear
3:00 AM 57.2 °F 51.8 °F 82% 29.77 in - SW 6.9 mph - N/A   Clear
3:30 AM 55.4 °F 51.8 °F 88% 29.77 in - WSW 5.8 mph - N/A   Clear
4:00 AM 57.2 °F 51.8 °F 82% 29.77 in - SW 6.9 mph - N/A   Clear
4:30 AM 55.4 °F 50.0 °F 82% 29.77 in - SW 5.8 mph - N/A   Clear
5:00 AM 53.6 °F 50.0 °F 88% 29.77 in - WSW 5.8 mph - N/A   Clear
5:30 AM 53.6 °F 50.0 °F 88% 29.77 in - SW 6.9 mph - N/A   Clear
6:00 AM 53.6 °F 50.0 °F 88% 29.77 in - SW 5.8 mph - N/A   Clear
6:30 AM 57.2 °F 51.8 °F 82% 29.77 in - WSW 5.8 mph - N/A   Clear
7:00 AM 59.0 °F 51.8 °F 77% 29.80 in - West 3.5 mph - N/A   Clear
7:30 AM 62.6 °F 51.8 °F 68% 29.80 in - West 4.6 mph - N/A   Clear
8:00 AM 64.4 °F 51.8 °F 64% 29.80 in - West 6.9 mph - N/A   Clear
8:30 AM 66.2 °F 53.6 °F 64% 29.80 in - West 9.2 mph - N/A   Clear
9:00 AM 66.2 °F 51.8 °F 60% 29.80 in - West 8.1 mph - N/A   Clear
9:30 AM 69.8 °F 53.6 °F 56% 29.80 in - WSW 8.1 mph - N/A   Clear
10:00 AM 71.6 °F 51.8 °F 50% 29.80 in - WSW 10.4 mph - N/A   Clear
10:30 AM 71.6 °F 51.8 °F 50% 29.80 in - West 12.7 mph - N/A   Clear
11:00 AM 73.4 °F 50.0 °F 44% 29.83 in - West 15.0 mph - N/A   Clear
11:30 AM 73.4 °F 50.0 °F 44% 29.83 in - West 12.7 mph - N/A   Clear
12:00 PM 75.2 °F 50.0 °F 41% 29.83 in - West 12.7 mph - N/A   Clear
12:30 PM 75.2 °F 50.0 °F 41% 29.83 in 6.2 mi West 12.7 mph - N/A   Partly Cloudy
1:00 PM 75.2 °F 51.8 °F 44% 29.83 in 6.2 mi West 10.4 mph - N/A   Partly Cloudy
1:30 PM 77.0 °F 50.0 °F 39% 29.83 in 6.2 mi WSW 9.2 mph - N/A   Partly Cloudy
2:00 PM 77.0 °F 50.0 °F 39% 29.83 in 6.2 mi WSW 10.4 mph - N/A   Partly Cloudy
2:30 PM 77.0 °F 48.2 °F 36% 29.83 in - West 10.4 mph - N/A   Clear
3:00 PM 78.8 °F 46.4 °F 32% 29.83 in - WSW 8.1 mph - N/A   Clear
3:30 PM 78.8 °F 46.4 °F 32% 29.80 in - SW 6.9 mph - N/A   Clear
4:00 PM 73.4 °F 53.6 °F 50% 29.80 in - SE 12.7 mph - N/A   Clear
4:30 PM 71.6 °F 53.6 °F 53% 29.80 in - SE 15.0 mph - N/A   Clear
5:00 PM 71.6 °F 53.6 °F 53% 29.80 in - SE 13.8 mph - N/A   Clear
5:30 PM 73.4 °F 55.4 °F 53% 29.80 in - SE 12.7 mph - N/A   Clear
6:00 PM 71.6 °F 55.4 °F 57% 29.80 in 6.2 mi SSE 12.7 mph - N/A   Partly Cloudy
6:30 PM 71.6 °F 53.6 °F 53% 29.80 in 6.2 mi SSE 11.5 mph - N/A   Partly Cloudy
7:00 PM 69.8 °F 55.4 °F 60% 29.80 in 6.2 mi SSE 9.2 mph - N/A   Partly Cloudy
7:30 PM 69.8 °F 53.6 °F 56% 29.80 in 6.2 mi SSE 9.2 mph - N/A Thunderstorm Partly Cloudy
8:00 PM 68.0 °F 53.6 °F 60% 29.80 in 6.2 mi South 9.2 mph - N/A Thunderstorm Partly Cloudy
8:30 PM 66.2 °F 55.4 °F 68% 29.83 in 6.2 mi South 10.4 mph - N/A Thunderstorm Partly Cloudy
9:00 PM 62.6 °F 55.4 °F 77% 29.86 in 6.2 mi West 19.6 mph - N/A Rain , Thunderstorm Light Thunderstorms and Rain
9:30 PM 60.8 °F 55.4 °F 82% 29.86 in 6.2 mi West 15.0 mph - N/A Thunderstorm Partly Cloudy
10:00 PM 60.8 °F 55.4 °F 82% 29.86 in 6.2 mi WNW 10.4 mph - N/A Thunderstorm Partly Cloudy
10:30 PM 60.8 °F 55.4 °F 82% 29.86 in 6.2 mi West 11.5 mph - N/A   Partly Cloudy
11:00 PM 60.8 °F 55.4 °F 82% 29.86 in 6.2 mi West 9.2 mph - N/A   Partly Cloudy
11:30 PM 60.8 °F 55.4 °F 82% 29.83 in 6.2 mi NW 5.8 mph - N/A   Partly Cloudy